[[{"header":{"parameterUnit":"m.s-1","parameterCategory":2,"la1":30.2992,"la2":30.254,"lo1":-89.0895,"lo2":-89.0443,"dy":0.0025,"dx":0.0025,"nx":19,"ny":19,"refTime":"2026-04-24T03:00:00:Z","depth":"0","parameterNumber":2,"parameterNumberName":"U-component_of_CURRENTS"},"data":[0,0,0,0.3208,0.3209,0.3246,0.3245,0.3356,0.3358,0,0,0,0,0,0,0,0,0,0,0,0.32,0.3201,0.3207,0.3209,0.3246,0.3245,0.3356,0.3358,0,0,0,0,0,0,0,0,0,0,0,0.3199,0.32,0.3201,0.3209,0.3246,0.3245,0.3356,0.3308,0,0,0,0,0,0,0,0,0,0,0.3263,0.3259,0.32,0.3202,0.321,0.3246,0.3245,0.3305,0.3311,0.3363,0,0.3386,0,0.3383,0.3368,0.3369,0,0,0,0.3192,0.3254,0.3261,0.3202,0.321,0.3246,0.3224,0.3308,0.3315,0.3372,0.3387,0.3391,0.3385,0.3369,0.337,0.3678,0.3681,0,0,0.319,0.3207,0.3256,0.3266,0.3245,0.3223,0.3226,0.3311,0.3333,0.3388,0.3393,0.3387,0.337,0.3371,0.3676,0.3679,0,0,0,0.3196,0.3206,0.3209,0.3262,0.3269,0.3225,0.3227,0.3329,0.333,0.3394,0.3388,0.3371,0.3373,0.3674,0.3677,0.3782,0,0,0,0.3194,0.321,0.3209,0.3219,0.3268,0.3293,0.3243,0.3324,0.3333,0.3388,0.3371,0.3374,0.3671,0.3676,0.3773,0.3809,0,0,0,0.3194,0.321,0.322,0.322,0.3242,0.3291,0.3296,0.3325,0.3331,0.3369,0.3375,0.367,0.3675,0.3766,0.3798,0.3869,0,0,0,0.3198,0.3272,0.3221,0.3312,0.3242,0.337,0.3295,0.3352,0.339,0.3372,0.3672,0.3677,0.3764,0.3791,0.3862,0.3803,0.3829,0,0,0.3298,0.3285,0.334,0.3296,0.3411,0.3362,0.3517,0.3493,0.3497,0.3639,0.3645,0.3776,0.3797,0.3867,0.4107,0.4123,0,0,0,0.3376,0.3401,0.3439,0.3482,0.3548,0.3601,0.36,0.3643,0.3739,0.3549,0.3855,0.3866,0.3905,0.3859,0.3874,0.3732,0.3701,0.3701,0.37,0.3474,0.3493,0.3585,0.3619,0.3702,0.3774,0.3851,0.3919,0.3896,0.3972,0.4009,0.4215,0.4173,0.4182,0.4039,0.4082,0.4083,0.4083,0.4083,0.3578,0.3608,0.3652,0.3739,0.3807,0.3928,0.4087,0.4092,0.4273,0.4211,0.4243,0.4045,0.4203,0.4046,0.4091,0.409,0.4089,0.4088,0.4088,0.3598,0.3614,0.3663,0.3753,0.3869,0.3977,0.4123,0.4257,0.4356,0.4434,0.4354,0.435,0.4154,0.4441,0.4441,0.4442,0.4442,0.4442,0.4443,0.3576,0.363,0.3659,0.3763,0.3802,0.3923,0.4153,0.427,0.4428,0.448,0.4479,0.4236,0.4323,0.4243,0.4451,0.445,0.4449,0.4448,0.4447,0.3548,0.3566,0.3605,0.3634,0.3725,0.3743,0.4007,0.4225,0.4401,0.4459,0.4358,0.4503,0.4454,0.444,0.4365,0.4593,0.4593,0.4593,0.4593,0.3486,0.3515,0.3503,0.3517,0.3564,0.3649,0.3706,0.3966,0.4219,0.4283,0.4342,0.4227,0.4227,0.4157,0.415,0.4066,0.4214,0.4213,0.4212,0.3415,0.3443,0.3382,0.3424,0.3455,0.3484,0.3451,0.3584,0.3963,0.4184,0.4166,0.4182,0.3997,0.4009,0.3879,0.388,0.3735,0,0]},{"header":{"parameterUnit":"m.s-1","parameterCategory":2,"la1":30.2992,"la2":30.254,"lo1":-89.0895,"lo2":-89.0443,"dy":0.0025,"dx":0.0025,"nx":19,"ny":19,"refTime":"2026-04-24T03:00:00:Z","depth":"0","parameterNumber":3,"parameterNumberName":"V-component_of_CURRENTS"},"data":[0,0,0,0.0337,0.0335,0.0199,0.0198,0.014,0.014,0,0,0,0,0,0,0,0,0,0,0,0.0393,0.0393,0.0337,0.0335,0.0199,0.0198,0.014,0.014,0,0,0,0,0,0,0,0,0,0,0,0.0393,0.0393,0.0393,0.0334,0.02,0.0198,0.014,0.0208,0,0,0,0,0,0,0,0,0,0,0.0323,0.0375,0.0393,0.0393,0.0334,0.02,0.0198,0.021,0.0204,0.0243,0,0.0242,0,0.0201,0.0141,0.0142,0,0,0,0.0309,0.0379,0.034,0.0393,0.0333,0.02,0.0253,0.0205,0.0199,0.0236,0.0241,0.0237,0.02,0.0142,0.0142,0.0338,0.034,0,0,0.0317,0.0367,0.0344,0.0336,0.0328,0.0258,0.0249,0.02,0.0212,0.024,0.0235,0.0199,0.0142,0.0142,0.0336,0.0339,0,0,0,0.0356,0.0373,0.0331,0.034,0.0312,0.0255,0.0245,0.0213,0.0199,0.0234,0.0198,0.0142,0.0142,0.0334,0.0337,0.0504,0,0,0,0.0359,0.0397,0.0335,0.0363,0.0313,0.0248,0.026,0.0202,0.0194,0.0199,0.0142,0.0142,0.0332,0.0336,0.0494,0.0554,0,0,0,0.0394,0.04,0.0392,0.0366,0.0317,0.0247,0.0227,0.0198,0.0175,0.0142,0.0142,0.033,0.0335,0.0486,0.054,0.0605,0,0,0,0.0437,0.0479,0.0394,0.0452,0.0319,0.0361,0.0226,0.0236,0.0225,0.0142,0.0332,0.0337,0.0483,0.0532,0.0597,0.0697,0.0741,0,0,0.052,0.0491,0.053,0.0451,0.0509,0.0375,0.0474,0.0381,0.0314,0.0346,0.0349,0.0497,0.0539,0.0603,0.0976,0.1011,0,0,0,0.0577,0.059,0.0605,0.0608,0.0607,0.0609,0.0526,0.0514,0.0519,0.0331,0.0549,0.0571,0.0605,0.0652,0.0682,0.0476,0.0359,0.0359,0.0358,0.0666,0.0673,0.0745,0.0754,0.0792,0.078,0.0803,0.0774,0.0695,0.0745,0.0747,0.0963,0.1021,0.1043,0.0833,0.0798,0.0799,0.0799,0.08,0.076,0.0802,0.0827,0.0895,0.0925,0.0999,0.1046,0.1009,0.1071,0.0968,0.0992,0.0876,0.1084,0.0848,0.0811,0.0809,0.0808,0.0807,0.0806,0.0783,0.082,0.0854,0.0961,0.1064,0.1119,0.1274,0.1269,0.1213,0.1267,0.1256,0.1253,0.1003,0.1263,0.1264,0.1264,0.1265,0.1265,0.1266,0.0803,0.0851,0.094,0.1045,0.1136,0.128,0.1414,0.1487,0.1508,0.1452,0.1451,0.1089,0.1102,0.1035,0.1276,0.1274,0.1273,0.1272,0.1271,0.0874,0.0893,0.1025,0.1119,0.1348,0.1565,0.1665,0.1826,0.1831,0.1847,0.1417,0.1539,0.1478,0.1454,0.1396,0.1715,0.1715,0.1715,0.1715,0.0923,0.0941,0.1137,0.1307,0.1526,0.1713,0.205,0.2163,0.1892,0.169,0.1482,0.1383,0.1374,0.1296,0.1276,0.1209,0.1474,0.1473,0.1472,0.1001,0.1045,0.1196,0.1356,0.1614,0.1896,0.2247,0.2436,0.1921,0.1432,0.118,0.119,0.1005,0.1007,0.0845,0.0833,0.0708,0,0]}],[{"header":{"parameterUnit":"m.s-1","parameterCategory":2,"la1":30.2992,"la2":30.254,"lo1":-89.0895,"lo2":-89.0443,"dy":0.0025,"dx":0.0025,"nx":19,"ny":19,"refTime":"2026-04-24T03:00:00:Z","depth":"2","parameterNumber":2,"parameterNumberName":"U-component_of_CURRENTS"},"data":[0,0,0,0.2656,0.2658,0.2753,0.2753,0.2846,0.2847,0,0,0,0,0,0,0,0,0,0,0,0.2616,0.2617,0.2656,0.2658,0.2753,0.2753,0.2846,0.2847,0,0,0,0,0,0,0,0,0,0,0,0.2616,0.2616,0.2617,0.2658,0.2753,0.2753,0.2846,0.2781,0,0,0,0,0,0,0,0,0,0,0.2692,0.2699,0.2616,0.2617,0.2659,0.2752,0.2753,0.2778,0.2785,0.2797,0,0.2812,0,0.2836,0.2853,0.2853,0,0,0,0.2655,0.2693,0.2682,0.2617,0.266,0.2752,0.2709,0.2782,0.279,0.2806,0.2813,0.2817,0.2838,0.2854,0.2854,0.3057,0.3058,0,0,0.265,0.2669,0.2677,0.2687,0.2685,0.2706,0.2712,0.2787,0.2817,0.2814,0.282,0.2839,0.2854,0.2855,0.3055,0.3057,0,0,0,0.2637,0.2666,0.2655,0.2683,0.2705,0.2709,0.2716,0.2814,0.2799,0.2821,0.2841,0.2855,0.2856,0.3053,0.3056,0.3268,0,0,0,0.2633,0.2658,0.2652,0.267,0.2704,0.2776,0.2741,0.2794,0.2804,0.284,0.2855,0.2857,0.3052,0.3055,0.3259,0.3288,0,0,0,0.2612,0.2658,0.2659,0.267,0.2709,0.2774,0.2767,0.2797,0.2816,0.2853,0.2857,0.305,0.3054,0.325,0.3276,0.3382,0,0,0,0.2639,0.2671,0.266,0.2731,0.2708,0.2826,0.2766,0.2844,0.2884,0.2855,0.3052,0.3056,0.3248,0.3268,0.3374,0.3156,0.3175,0,0,0.2687,0.2678,0.272,0.2713,0.2781,0.2813,0.2969,0.2965,0.2946,0.302,0.3025,0.3262,0.3275,0.3381,0.3369,0.3382,0,0,0,0.2742,0.2761,0.2786,0.2834,0.29,0.3004,0.3038,0.3093,0.3192,0.2988,0.3278,0.3278,0.3338,0.319,0.3202,0.3073,0.3073,0.3072,0.3072,0.2819,0.2832,0.292,0.2954,0.3022,0.3152,0.3279,0.3364,0.3323,0.3412,0.3467,0.3701,0.355,0.3555,0.3514,0.3515,0.3516,0.3517,0.3517,0.2946,0.302,0.3032,0.3147,0.3221,0.3357,0.3509,0.3557,0.3765,0.3673,0.3724,0.3438,0.3579,0.3534,0.3531,0.3529,0.3527,0.3526,0.3525,0.3076,0.31,0.3198,0.3307,0.3418,0.3497,0.3663,0.3818,0.3901,0.4024,0.381,0.3802,0.3789,0.4051,0.4051,0.4052,0.4053,0.4053,0.4053,0.3185,0.3237,0.3342,0.3461,0.3502,0.3623,0.3801,0.3909,0.3973,0.3976,0.3974,0.3879,0.3862,0.3818,0.4064,0.4062,0.4061,0.406,0.4059,0.3282,0.331,0.34,0.3488,0.3586,0.3544,0.3771,0.3832,0.4004,0.3972,0.3954,0.3953,0.3843,0.3828,0.3782,0.4004,0.4004,0.4004,0.4004,0.3302,0.3342,0.3366,0.3413,0.3493,0.3495,0.3385,0.3351,0.3519,0.3528,0.3548,0.3371,0.3384,0.3236,0.3235,0.3171,0.3235,0.3233,0.3232,0.3295,0.3306,0.3282,0.3341,0.3393,0.3319,0.2965,0.2654,0.2836,0.3197,0.3372,0.3961,0.3747,0.375,0.3551,0.3539,0.3447,0,0]},{"header":{"parameterUnit":"m.s-1","parameterCategory":2,"la1":30.2992,"la2":30.254,"lo1":-89.0895,"lo2":-89.0443,"dy":0.0025,"dx":0.0025,"nx":19,"ny":19,"refTime":"2026-04-24T03:00:00:Z","depth":"2","parameterNumber":3,"parameterNumberName":"V-component_of_CURRENTS"},"data":[0,0,0,0.0147,0.0146,0.0059,0.0059,-0.0034,-0.0034,0,0,0,0,0,0,0,0,0,0,0,0.0179,0.0179,0.0147,0.0146,0.0059,0.0059,-0.0034,-0.0034,0,0,0,0,0,0,0,0,0,0,0,0.0179,0.0179,0.0179,0.0145,0.0059,0.0059,-0.0034,0.0022,0,0,0,0,0,0,0,0,0,0,0.0101,0.0132,0.0179,0.0179,0.0145,0.006,0.0058,0.0024,0.0018,0.0017,0,0.0019,0,-0.0,-0.0038,-0.0038,0,0,0,0.0124,0.0137,0.0122,0.0179,0.0145,0.006,0.0092,0.0021,0.0014,0.001,0.0018,0.0014,-0.0002,-0.0038,-0.0039,-0.0012,-0.0011,0,0,0.0129,0.015,0.0126,0.0119,0.0143,0.0095,0.009,0.0016,0.0015,0.0017,0.0012,-0.0003,-0.0039,-0.0039,-0.0012,-0.0012,0,0,0,0.0157,0.0154,0.0139,0.0123,0.0111,0.0093,0.0087,0.0017,0.0015,0.001,-0.0004,-0.0039,-0.004,-0.0013,-0.0012,0.0137,0,0,0,0.0159,0.0172,0.0142,0.0151,0.0113,0.006,0.009,0.002,0.0011,-0.0004,-0.0039,-0.004,-0.0014,-0.0013,0.0131,0.0217,0,0,0,0.0179,0.0173,0.0171,0.0153,0.0126,0.0061,0.0052,0.0017,0.0003,-0.0038,-0.0041,-0.0015,-0.0013,0.0126,0.0207,0.0305,0,0,0,0.0191,0.02,0.0172,0.0184,0.0127,0.0124,0.0052,0.0025,-0.0005,-0.0039,-0.0014,-0.0012,0.0124,0.0201,0.0299,0.032,0.0351,0,0,0.021,0.0203,0.0213,0.0186,0.0205,0.0133,0.0157,0.0077,0.0023,0.0005,0.0005,0.0133,0.0206,0.0304,0.0418,0.0447,0,0,0,0.0224,0.0235,0.0234,0.024,0.0226,0.0236,0.0158,0.0139,0.0125,0.0017,0.0126,0.0167,0.0225,0.0223,0.0246,-0.0004,-0.0004,-0.0005,-0.0005,0.0257,0.0266,0.0302,0.0316,0.0322,0.03,0.0317,0.0284,0.0204,0.023,0.0283,0.0453,0.0452,0.047,0.0263,0.0264,0.0265,0.0265,0.0265,0.0297,0.0339,0.0364,0.0416,0.045,0.0478,0.0481,0.0453,0.0515,0.0409,0.0457,0.0372,0.0505,0.0277,0.0275,0.0273,0.0272,0.0271,0.0271,0.0326,0.0362,0.0395,0.0495,0.0586,0.0613,0.0756,0.0728,0.0671,0.0735,0.0708,0.0704,0.0562,0.0754,0.0754,0.0755,0.0756,0.0757,0.0757,0.036,0.0389,0.0504,0.0602,0.0704,0.0844,0.0937,0.0998,0.0972,0.0891,0.089,0.0618,0.0602,0.059,0.077,0.0768,0.0766,0.0765,0.0764,0.0426,0.046,0.0593,0.0717,0.0952,0.1138,0.1216,0.1308,0.1315,0.1297,0.0972,0.0962,0.092,0.0899,0.0892,0.1141,0.1141,0.1141,0.1141,0.0489,0.0517,0.0704,0.089,0.1123,0.1279,0.1528,0.1488,0.1325,0.1161,0.1159,0.1037,0.1022,0.0976,0.0952,0.0942,0.1204,0.1204,0.1204,0.0555,0.06,0.0753,0.0933,0.1199,0.1432,0.1633,0.1567,0.1279,0.1202,0.1125,0.1154,0.0963,0.0944,0.0854,0.0824,0.08,0,0]}],[{"header":{"parameterUnit":"m.s-1","parameterCategory":2,"la1":30.2992,"la2":30.254,"lo1":-89.0895,"lo2":-89.0443,"dy":0.0025,"dx":0.0025,"nx":19,"ny":19,"refTime":"2026-04-24T03:00:00:Z","depth":"4","parameterNumber":2,"parameterNumberName":"U-component_of_CURRENTS"},"data":[0,0,0,0.1404,0.1407,0.1565,0.1566,0.1754,0.1756,0,0,0,0,0,0,0,0,0,0,0,0.1366,0.1368,0.1404,0.1408,0.1565,0.1566,0.1754,0.1756,0,0,0,0,0,0,0,0,0,0,0,0.1365,0.1367,0.1369,0.1408,0.1565,0.1566,0.1754,0.1638,0,0,0,0,0,0,0,0,0,0,0.1487,0.1441,0.1367,0.1369,0.1409,0.1565,0.1566,0.1633,0.1646,0.1679,0,0.1722,0,0.1737,0.1768,0.1769,0,0,0,0.1409,0.143,0.1484,0.137,0.1411,0.1565,0.1495,0.164,0.1654,0.1695,0.1724,0.1731,0.174,0.1769,0.177,0.1962,0.1963,0,0,0.1401,0.1382,0.1474,0.1493,0.1476,0.1489,0.1499,0.1649,0.1667,0.1725,0.1735,0.1743,0.1771,0.1772,0.1961,0.1962,0,0,0,0.1375,0.1375,0.1425,0.1486,0.1512,0.1494,0.1505,0.1661,0.1682,0.1737,0.1745,0.1772,0.1774,0.196,0.1962,0.1945,0,0,0,0.1369,0.136,0.1422,0.141,0.151,0.1586,0.1514,0.1672,0.1689,0.1744,0.1772,0.1776,0.196,0.1961,0.1944,0.1958,0,0,0,0.1354,0.1357,0.1386,0.1409,0.1475,0.1584,0.1613,0.1676,0.1693,0.1769,0.1776,0.1959,0.1961,0.1943,0.1956,0.2062,0,0,0,0.1314,0.1351,0.1386,0.1433,0.1474,0.1565,0.1613,0.1691,0.1755,0.1773,0.196,0.1961,0.1943,0.1954,0.206,0.1791,0,0,0,0.1328,0.1353,0.1378,0.1412,0.1483,0.1542,0.162,0.1726,0.1795,0.1908,0.1913,0.1945,0.1955,0.2062,0.1896,0,0,0,0,0.136,0.1379,0.1411,0.1463,0.1537,0.1625,0.1703,0.1758,0.1886,0.1843,0.1985,0.1994,0.2061,0.1897,0.197,0.197,0.1969,0.1969,0.1969,0.1347,0.1381,0.1412,0.1476,0.1562,0.1677,0.1757,0.1855,0.1897,0.1963,0.2009,0.212,0.1944,0.2032,0.2032,0.2032,0.2032,0.2032,0.2032,0.1287,0.1263,0.1381,0.142,0.1555,0.1661,0.1842,0.1895,0.2045,0.2039,0.2105,0.1924,0.2032,0.2032,0.2032,0.2032,0.2032,0.2032,0.2032,0.1154,0.115,0.1202,0.1304,0.1472,0.167,0.1828,0.1969,0.2082,0.213,0.2046,0.2158,0.2131,0.2202,0.2202,0.2203,0.2203,0.2204,0.2204,0.0963,0.1018,0.1042,0.1198,0.1327,0.1537,0.184,0.195,0.2121,0.2039,0.2177,0.2179,0.2173,0.2145,0.2212,0.2211,0.221,0.2209,0.2208,0.0773,0.0838,0.0864,0.0951,0.1179,0.1337,0.165,0.1881,0.1988,0.2011,0.2006,0.2013,0.2018,0.2019,0.1984,0.2006,0.2003,0.2,0,0.068,0.0695,0.0738,0.0803,0.0937,0.1183,0.133,0.154,0.1757,0.169,0.1946,0.1929,0.1936,0.1928,0.1924,0.1875,0,0,0,0.0623,0.0647,0.0643,0.0686,0.082,0.1068,0.136,0.1404,0.1709,0.1784,0.1921,0.1941,0.2053,0.2236,0.2266,0.2259,0.2217,0,0]},{"header":{"parameterUnit":"m.s-1","parameterCategory":2,"la1":30.2992,"la2":30.254,"lo1":-89.0895,"lo2":-89.0443,"dy":0.0025,"dx":0.0025,"nx":19,"ny":19,"refTime":"2026-04-24T03:00:00:Z","depth":"4","parameterNumber":3,"parameterNumberName":"V-component_of_CURRENTS"},"data":[0,0,0,0.017,0.017,0.0151,0.015,0.005,0.0049,0,0,0,0,0,0,0,0,0,0,0,0.0171,0.0171,0.017,0.017,0.0151,0.015,0.005,0.0049,0,0,0,0,0,0,0,0,0,0,0,0.0171,0.0171,0.0172,0.017,0.0151,0.015,0.0051,0.008,0,0,0,0,0,0,0,0,0,0,0.0106,0.0119,0.0171,0.0172,0.017,0.0151,0.015,0.0082,0.0078,0.0043,0,0.0051,0,0.0056,0.0043,0.0042,0,0,0,0.0152,0.0122,0.0127,0.0172,0.017,0.0151,0.0154,0.008,0.0076,0.0037,0.0049,0.0046,0.0054,0.0042,0.0041,-0.0046,-0.0046,0,0,0.0153,0.0152,0.0131,0.0125,0.0177,0.0155,0.0154,0.0078,0.007,0.0049,0.0044,0.0052,0.0041,0.004,-0.0046,-0.0046,0,0,0,0.0168,0.0153,0.0161,0.0128,0.0135,0.0155,0.0154,0.0073,0.008,0.0043,0.0051,0.0041,0.0039,-0.0046,-0.0046,0.0009,0,0,0,0.0168,0.0163,0.0162,0.0158,0.0138,0.0114,0.0151,0.0085,0.0077,0.0052,0.0041,0.0038,-0.0045,-0.0046,0.0008,0.0085,0,0,0,0.017,0.0163,0.0168,0.0159,0.016,0.0116,0.0116,0.0083,0.0082,0.0042,0.0038,-0.0045,-0.0046,0.0007,0.0081,0.0111,0,0,0,0.016,0.0157,0.0167,0.016,0.0161,0.0139,0.0117,0.0081,0.0047,0.004,-0.0045,-0.0046,0.0007,0.0079,0.0108,0.0154,0,0,0,0.0148,0.0155,0.015,0.016,0.0167,0.014,0.0122,0.0069,0.0028,-0.0029,-0.003,0.0008,0.0081,0.011,0.0124,0,0,0,0,0.0141,0.016,0.0153,0.0167,0.0144,0.0159,0.0101,0.0067,0.0019,0.0011,-0.0017,0.0028,0.0045,0.0062,-0.0048,-0.0048,-0.0048,-0.0048,-0.0048,0.016,0.0164,0.0185,0.0202,0.0189,0.0154,0.0139,0.0088,0.0023,0.0007,0.0051,0.0091,0.0106,-0.0002,-0.0002,-0.0001,-0.0001,-0.0001,-0.0001,0.0219,0.0252,0.0261,0.0286,0.0282,0.0269,0.0206,0.016,0.0128,0.0072,0.0083,0.0092,0.0004,0.0003,0.0002,0.0002,0.0001,0.0001,0.0001,0.0289,0.0303,0.0325,0.0383,0.0412,0.0375,0.0394,0.0315,0.022,0.0228,0.023,0.0142,0.0163,0.022,0.0221,0.0221,0.0221,0.0222,0.0222,0.0347,0.0372,0.0434,0.0488,0.053,0.0559,0.0518,0.0483,0.0386,0.0338,0.0259,0.0167,0.0159,0.0175,0.0229,0.0228,0.0227,0.0226,0.0226,0.0414,0.043,0.0534,0.0589,0.0696,0.0711,0.0686,0.0597,0.0578,0.052,0.0374,0.0365,0.0362,0.035,0.0372,0.0488,0.0488,0.0489,0,0.0449,0.0468,0.0604,0.0718,0.0806,0.0806,0.0791,0.0731,0.0592,0.0585,0.0554,0.0392,0.0383,0.0379,0.037,0.0398,0,0,0,0.0479,0.0525,0.062,0.0746,0.0849,0.0824,0.0782,0.0743,0.0629,0.0595,0.0511,0.0505,0.0367,0.025,0.0223,0.0215,0.0239,0,0]}]]